Starlink 32042

operational
NORAD ID: 60108 Int'l Des: 2024-117 Owner: SPXS Country: US Constellation: starlink
LEOCIRCULAR

Über Starlink 32042

Beschreibung wird geladen...

Live-Position

3D-Globus wird geladen...

Nächste Überflüge

Höhenverlauf

Altitude vs Time

uPlot chart will show altitude changes over time

Zweizeiliger Elementsatz

1 60108U 24117T 26036.71742539 .00000278 00000-0 21518-4 0 9993
2 60108 53.1595 185.4670 0001145 101.6930 258.4199 15.30190556 91998
Epoch: 5. Feb. 2026 • Age: 6 hours

Aktueller Status

Höhe 477.4 km
Geschwindigkeit 7.63 km/s
Subsatellitenpunkt -6.28°S, 51.62°E
Startdatum 23. Juni 2024
Alter 1.6 years
Typ internet

Technische Details

Klassifizierung Payload
Masse 730.00 kg
Trockenmasse 700.00 kg
Gesamtmasse 730.00 kg
Länge 0.30 m
Durchmesser 4.10 m
Spannweite 29.00 m
Form Box + pan
Hersteller SPXS
Bus-Typ Starlink V2M
Phasenstatus In Orbit
Besitzer/Staat SPXS/US

Große Konstellationen

Loading constellations...